Tracking 19854 objects as of 23-Sep-2019
HD Live streaming from Space Station
objects crossing your sky now

SL-8 R/B

Track SL-8 R/B now!
10-day predictions


NORAD ID: 16292
Int'l Code: 1985-110B
Perigee: 960.4 km
Apogee: 1,003.2 km
Inclination: 82.9 °
Period: 104.6 minutes
Semi major axis: 7352 km
RCS: 4.4444 m2 (large)
Launch date: November 28, 1985
Source: Commonwealth of Independent States (former USSR) (CIS)
Launch site: PLESETSK MISSILE AND SPACE COMPLEX (PKMTR)

Note: This is a ROCKET BODY
aabbcc
Your satellite tracking list
Your tracking list is empty




NASA's NSSDC Master Catalog

Two Line Element Set (TLE):
1 16292U 85110B   19266.13713068  .00000067  00000-0  52841-4 0  9995
2 16292  82.9283 107.6382 0029151 292.9783  66.8300 13.76971515699102
Source of the keplerian elements: AFSPC